Location: Unspecified
(40.7945°N, 0.0000°E)
Time: 22:39:15
(UTC+00:00)

UNISAT 6 - Visible Passes

Search period start: 20 July 2019 00:00
Search period end: 30 July 2019 00:00
Orbit: 607 x 689 km, 97.8° (Epoch: 20 July)

Date Brightness Start Highest point End Pass type
(mag) Time Alt. Az. Time Alt. Az. Time Alt. Az.
20 Jul ? 21:01:12 10° N 21:05:51 82° WNW 21:10:31 10° SSW visible
21 Jul ? 19:51:41 10° NE 19:54:57 19° E 19:58:12 10° SE visible
21 Jul ? 21:27:24 10° N 21:31:47 44° WNW 21:36:13 10° SW visible
22 Jul ? 20:16:54 10° NNE 20:21:08 34° E 20:25:23 10° SSE visible
22 Jul ? 21:53:53 10° NNW 21:57:38 25° WNW 22:01:24 10° WSW visible
23 Jul ? 20:42:36 10° NNE 20:47:14 64° E 20:51:53 10° S visible
23 Jul ? 22:20:59 10° NNW 22:23:23 14° WNW 22:25:49 10° W visible
24 Jul ? 21:08:36 10° N 21:13:15 68° WNW 21:17:54 10° SSW visible
25 Jul ? 19:58:44 10° NE 20:02:24 22° E 20:06:04 10° SE visible
25 Jul ? 21:34:53 10° N 21:39:09 37° WNW 21:43:27 10° SW visible
26 Jul ? 20:24:09 10° NNE 20:28:35 41° E 20:33:01 10° SSE visible
26 Jul ? 22:01:30 10° NNW 22:04:58 21° WNW 22:08:27 10° WSW visible
27 Jul ? 20:49:57 10° NNE 20:54:40 78° ESE 20:59:21 10° S visible
27 Jul ? 22:28:57 10° NW 22:30:41 12° WNW 22:32:25 10° W visible
28 Jul ? 21:16:02 10° N 21:20:38 56° WNW 21:25:14 10° SSW visible
29 Jul ? 20:05:53 10° NE 20:09:52 27° E 20:13:50 10° SSE visible
29 Jul ? 21:42:24 10° N 21:46:31 31° WNW 21:50:37 10° SW visible
